www.pogodaiklimat.ru

Погода и климат >> Архив погоды >> Швейцария >> Мозен


ПОГОДА в Мозене

  • Прогноз погоды в Мозене
  • Монитор погоды в Мозене

АРХИВ ПОГОДЫ в Мозене

Время (UTC), дата Ветер
(напр.,м/с)
 
Видим.   Явления Облачность Т
(С)
Тd
(С)
f
(%)
Тe
(С)
Тes
(С)
Комфортность P
(гПа)
Po
(гПа)
Тmin
(С)
Tmax
(С)
R
(мм)
R24
(мм)
S
(см)
01 12.09 В 1
{2}
н/о н/о +10.0 +9.9 99 +10 +10 1030.9 976.4
02 12.09 З 1
{2}
н/о н/о +10.2 +10.1 99 +10 +10 1031.1 976.7
03 12.09 Ю 1
{2}
н/о н/о +9.4 +9.3 99 +10 +10 1031.2 976.6
04 12.09 З 1
{1}
н/о н/о +8.6 +8.5 99 +9 +9 1031.7 976.9
05 12.09 Ю 1
{2}
н/о н/о +8.0 +7.9 99 +7 +7 1032.2 977.3
06 12.09 С 1
{2}
н/о н/о +9.0 +8.9 99 +9 +9 1032.2 977.5 +7.7
07 12.09 Ю 1
{1}
н/о н/о +13.5 +13.3 99 +14 +14 1031.4 977.6
08 12.09 З 1
{2}
н/о н/о +15.6 +13.5 87 +16 +16 1031.6 978.2
09 12.09 В 1
{2}
н/о н/о +18.4 +13.5 73 +20 +20 1031.3 978.4
10 12.09 СЗ 2
{4}
н/о н/о +19.4 +9.1 51 +21 +21 комфорт 1031.4 978.7
11 12.09 СЗ 2
{4}
н/о н/о +20.3 +9.8 51 +22 +22 комфорт 1031.2 978.7
12 12.09 СЗ 2
{4}
н/о н/о +21.5 +10.6 50 +23 +23 комфорт 1030.6 978.3
13 12.09 С 2
{3}
н/о н/о +22.2 +7.9 40 +23 +23 комфорт 1030.1 978.0
14 12.09 СЗ 2
{3}
н/о н/о +22.3 +8.8 42 +24 +24 комфорт 1030.0 977.9
15 12.09 СЗ 1
{3}
н/о н/о +22.6 +9.4 43 +24 +24 комфорт 1029.5 977.5
16 12.09 З 1
{2}
н/о н/о +22.5 +11.0 48 +25 +25 комфорт 1029.5 977.4
17 12.09 Ю 1
{2}
н/о н/о +19.5 +13.2 67 +22 +22 комфорт 1030.2 977.6
18 12.09 ЮВ 2
{3}
н/о н/о +15.7 +13.8 88 +16 +16 1031.3 977.9 +22.7
19 12.09 ЮВ 1
{2}
н/о н/о +13.8 +13.4 97 +15 +15 1032.4 978.6
20 12.09 Ю 1
{1}
н/о н/о +12.6 +12.5 99 +13 +13 1032.8 978.7
21 12.09 В 1
{2}
н/о н/о +11.6 +11.5 99 +12 +12 1033.1 978.8
22 12.09 ЮЗ 1
{2}
н/о н/о +11.2 +11.1 99 +12 +12 1033.3 978.9
23 12.09 ЮЗ 1
{1}
н/о н/о +10.6 +10.5 99 +11 +11 1033.1 978.6
00 13.09 В 1
{2}
н/о н/о +9.6 +9.5 99 +10 +10 1033.4 978.7
01 13.09 ЮВ 1
{1}
н/о н/о +9.6 +9.5 99 +10 +10 1033.2 978.5
02 13.09 Ю 1
{1}
н/о н/о +9.1 +9.0 99 +9 +9 1033.2 978.4
03 13.09 ЮВ 1
{1}
н/о н/о +8.8 +8.7 99 +8 +8 1033.3 978.5
04 13.09 Ю 1
{1}
н/о н/о +8.5 +8.4 99 +9 +9 1033.7 978.8
05 13.09 В 1
{1}
н/о н/о +8.4 +8.3 99 +8 +8 1034.3 979.3
06 13.09 ЮЗ 1
{2}
н/о н/о +8.9 +8.8 99 +9 +9 1033.9 979.1 +8.2
07 13.09 штиль 0
{1}
н/о н/о +13.2 +13.1 99 +13 +13 1033.0 979.0
08 13.09 СЗ 2
{2}
н/о н/о +15.7 +15.3 97 +16 +16 1032.8 979.3
09 13.09 В 1
{3}
н/о н/о +18.4 +14.9 80 +21 +21 комфорт 1031.9 979.0
10 13.09 З 2
{3}
н/о н/о +19.8 +13.7 68 +22 +22 комфорт 1031.4 978.8
11 13.09 З 2
{3}
н/о н/о +21.1 +14.1 64 +24 +24 комфорт 1030.7 978.3
12 13.09 СЗ 2
{4}
н/о н/о +22.9 +13.5 55 +26 +26 жарко 1029.7 977.7
13 13.09 СЗ 2
{4}
н/о н/о +23.7 +12.9 51 +26 +26 жарко 1029.2 977.4
14 13.09 СЗ 2
{5}
н/о н/о +24.2 +13.3 51 +26 +26 жарко 1028.9 977.2
15 13.09 СЗ 2
{5}
н/о н/о +24.4 +13.2 50 +27 +27 жарко 1028.6 976.9
16 13.09 СЗ 2
{3}
н/о н/о +24.1 +14.4 55 +27 +27 жарко 1028.4 976.7
17 13.09 З 1
{2}
н/о н/о +20.8 +14.9 69 +25 +25 комфорт 1028.9 976.6
18 13.09 штиль 0
{5}
н/о н/о +17.6 +15.2 86 +18 +18 1029.8 976.8 +24.7
19 13.09 СВ 1
{1}
н/о н/о +15.3 +15.2 99 +16 +16 1030.6 977.2
20 13.09 С 1
{2}
н/о н/о +14.5 +14.4 99 +15 +15 1030.7 977.1
21 13.09 ЮЗ 1
{2}
н/о н/о +13.2 +13.1 99 +14 +14 1031.2 977.3
22 13.09 СЗ 1
{2}
н/о н/о +12.8 +12.7 99 +13 +13 1031.4 977.4
23 13.09 СЗ 3
{4}
н/о н/о +17.5 +17.0 97 +18 +18 1030.3 977.3
00 14.09 С 3
{5}
н/о н/о +17.4 +15.6 89 +18 +18 1030.4 977.4
01 14.09 СЗ 2
{4}
н/о н/о +15.6 +15.2 97 +16 +16 1030.4 977.0
02 14.09 СЗ 2
{3}
н/о н/о +15.8 +15.6 99 +16 +16 1030.0 976.7
03 14.09 СЗ 2
{4}
н/о н/о +15.6 +15.5 99 +16 +16 1029.6 976.3
04 14.09 СЗ 2
{3}
н/о н/о +14.9 +14.8 99 +15 +15 1029.7 976.2
05 14.09 СЗ 1
{2}
н/о н/о +11.8 +11.7 99 +12 +12 1030.5 976.4
06 14.09 СВ 1
{4}
н/о н/о +12.0 +11.9 99 +12 +12 1030.9 976.8 +11.2
07 14.09 С 2
{4}
н/о н/о +16.3 +15.4 94 +16 +16 1030.5 977.3
08 14.09
{4}
н/о н/о +16.5 +15.2 92 1030.8 977.6
09 14.09 В 1
{4}
н/о н/о +17.2 +14.9 86 +18 +18 1030.5 977.4
10 14.09 СЗ 2
{4}
н/о н/о +17.6 +15.1 85 +18 +18 1030.2 977.2
11 14.09 ЮВ 1
{3}
н/о н/о +18.7 +15.5 82 +21 +21 комфорт 1029.2 976.5
12 14.09 ЮВ 1
{4}
н/о н/о +20.2 +16.0 77 +24 +24 комфорт 1028.0 975.6
13 14.09 З 1
{3}
н/о н/о +20.9 +16.2 74 +25 +25 комфорт 1027.4 975.2
14 14.09 З 2
{3}
н/о н/о +22.1 +16.2 69 +26 +26 душно 1026.7 974.7
15 14.09 З 1
{3}
н/о н/о +22.9 +16.2 66 +27 +27 душно 1026.1 974.3
16 14.09 ЮЗ 1
{2}
н/о н/о +23.1 +16.9 68 +28 +28 душно 1026.0 974.2
17 14.09 Ю 1
{2}
н/о н/о +21.0 +18.4 85 +27 +27 душно 1026.5 974.3
18 14.09 ЮВ 1
{3}
н/о н/о +17.9 +17.2 96 +19 +19 1027.2 974.4 +23.2
19 14.09 ЮВ 1
{3}
н/о н/о +16.5 +16.4 99 +17 +17 1027.6 974.5
20 14.09 ЮВ 1
{3}
н/о н/о +15.9 +15.8 99 +17 +17 1027.4 974.2
21 14.09 СЗ 1
{3}
н/о н/о +14.9 +14.8 99 +16 +16 1027.9 974.5
22 14.09 штиль 0
{2}
н/о н/о +13.6 +13.5 99 +13 +13 1027.8 974.2
23 14.09 ЮЗ 1
{2}
н/о н/о +12.9 +12.8 99 +14 +14 1027.6 973.9
00 15.09 В 1
{3}
н/о н/о +12.3 +12.2 99 +13 +13 1027.7 973.8
01 15.09 В 1
{1}
н/о н/о +11.6 +11.5 99 +12 +12 1027.5 973.5
02 15.09 ЮВ 1
{1}
н/о н/о +11.8 +11.7 99 +12 +12 1027.3 973.4
03 15.09 ЮВ 1
{1}
н/о н/о +12.1 +12.0 99 +13 +13 1027.3 973.4
04 15.09 ЮЗ 1
{1}
н/о н/о +13.0 +12.9 99 +14 +14 1027.0 973.3
05 15.09 Ю 2
{2}
н/о н/о +13.9 +13.8 99 +14 +14 1026.8 973.3
06 15.09 ЮЗ 1
{2}
н/о н/о +13.9 +13.8 99 +15 +15 1027.1 973.6 +11.4
07 15.09 ЮВ 1
{2}
н/о н/о +14.3 +14.2 99 +15 +15 1026.7 973.3
08 15.09
{2}
н/о н/о +15.4 +15.3 99 1026.5 973.3
09 15.09 СЗ 2
{2}
н/о н/о +16.9 +16.8 99 +17 +17 1026.1 973.2
10 15.09 З 2
{2}
н/о н/о +18.4 +18.3 99 +20 +20 1025.5 972.9
11 15.09 СЗ 2
{3}
н/о н/о +22.0 +18.0 78 +27 +27 душно 1024.2 972.3
12 15.09 С 1
{3}
н/о н/о +24.5 +17.8 66 +29 +29 душно 1023.2 971.8
13 15.09 С 2
{4}
н/о н/о +25.6 +17.2 60 +30 +30 душно 1022.2 971.1
14 15.09 Ю 2
{3}
н/о н/о +26.8 +15.6 50 +30 +30 душно 1021.3 970.4
15 15.09 С 2
{4}
н/о н/о +26.4 +15.5 51 +29 +29 жарко 1020.8 969.9
16 15.09 З 1
{2}
н/о н/о +25.4 +16.5 58 +29 +29 душно 1020.7 969.6
17 15.09 Ю 1
{2}
н/о н/о +21.9 +16.9 73 +26 +26 душно 1021.0 969.3
18 15.09 Ю 1
{4}
н/о н/о +18.1 +17.5 96 +19 +19 1021.9 969.4 +26.8
19 15.09 ЮВ 1
{2}
н/о н/о +16.5 +16.4 99 +18 +18 1022.5 969.7
20 15.09 Ю 1
{1}
н/о н/о +15.6 +15.5 99 +16 +16 1023.0 970.0
21 15.09 ЮВ 1
{2}
н/о н/о +14.6 +14.5 99 +15 +15 1023.0 969.8
22 15.09 ЮВ 1
{2}
н/о н/о +14.1 +14.0 99 +14 +14 1023.2 969.9
23 15.09 Ю 1
{2}
н/о н/о +14.1 +14.0 99 +15 +15 1023.3 970.0
00 16.09 СЗ 1
{2}
н/о н/о +13.7 +13.6 99 +15 +15 1023.3 969.9
01 16.09 ЮВ 2
{2}
н/о н/о +13.2 +13.1 99 +13 +13 1023.0 969.6
02 16.09 С 1
{2}
н/о н/о +13.0 +12.9 99 +13 +13 1022.8 969.3
03 16.09 ЮВ 1
{2}
н/о н/о +12.4 +12.3 99 +13 +13 1022.6 969.0
04 16.09 ЮВ 1
{2}
н/о н/о +12.0 +11.9 99 +12 +12 1022.2 968.6
05 16.09 ЮЗ 1
{1}
н/о н/о +11.2 +11.1 99 +11 +11 1022.4 968.6
06 16.09 С 1
{2}
н/о н/о +12.4 +12.3 99 +13 +13 1022.1 968.6 +11.2
07 16.09 В 1
{2}
н/о н/о +16.3 +16.2 99 +18 +18 1021.5 968.7
08 16.09 В 1
{1}
н/о н/о +18.8 +16.6 87 +22 +22 комфорт 1021.1 968.8
09 16.09 СЗ 1
{2}
н/о н/о +20.8 +16.0 74 +25 +25 комфорт 1020.7 968.8
10 16.09 СЗ 1
{3}
н/о н/о +22.8 +16.2 66 +27 +27 душно 1020.0 968.5
11 16.09 СЗ 1
{3}
н/о н/о +24.8 +17.4 63 +29 +29 душно 1019.1 968.0
12 16.09 СЗ 2
{3}
н/о н/о +25.9 +15.9 54 +29 +29 душно 1018.3 967.4
13 16.09 СЗ 2
{4}
н/о н/о +26.8 +14.9 48 +29 +29 жарко 1017.5 966.8
14 16.09 З 3
{7}
н/о н/о +27.0 +14.3 46 +29 +29 жарко 1016.9 966.3
15 16.09 З 3
{7}
н/о н/о +27.1 +14.6 46 +30 +30 душно 1016.5 965.9
16 16.09 З 2
{5}
н/о н/о +26.7 +14.7 48 +29 +29 жарко 1016.2 965.6
17 16.09 СВ 1
{4}
н/о н/о +22.6 +18.0 75 +28 +28 душно 1016.9 965.5
18 16.09 штиль 0
{7}
н/о н/о +19.7 +18.1 90 +22 +22 комфорт 1017.8 965.8 +27.2
19 16.09 ЮВ 1
{2}
н/о н/о +17.6 +17.4 99 +19 +19 1018.5 966.1
20 16.09 В 1
{2}
н/о н/о +16.8 +16.7 99 +18 +18 1018.7 966.2
21 16.09 Ю 1
{2}
н/о н/о +15.9 +15.8 99 +17 +17 1019.1 966.4
22 16.09 ЮВ 2
{2}
н/о н/о +14.6 +14.5 99 +14 +14 1019.3 966.3
23 16.09 Ю 1
{2}
н/о н/о +13.6 +13.5 99 +14 +14 1019.3 966.1
00 17.09 З 1
{2}
н/о н/о +13.0 +12.9 99 +14 +14 1019.3 966.0
01 17.09 З 1
{2}
н/о н/о +12.4 +12.3 99 +13 +13 1019.4 966.0
02 17.09 Ю 1
{1}
н/о н/о +12.2 +12.1 99 +13 +13 1019.2 965.8
03 17.09 Ю 1
{2}
н/о н/о +11.8 +11.7 99 +12 +12 1019.3 965.8
04 17.09 З 1
{1}
н/о н/о +11.6 +11.5 99 +12 +12 1019.5 965.9
05 17.09 В 1
{3}
н/о н/о +11.8 +11.7 99 +12 +12 1019.6 966.1
06 17.09 В 1
{3}
н/о н/о +11.9 +11.8 99 +12 +12 1019.7 966.2 +11.3
07 17.09 ЮВ 1
{1}
н/о н/о +16.2 +16.1 99 +18 +18 1019.2 966.5
08 17.09 ЮВ 1
{2}
н/о н/о +18.2 +16.2 88 +20 +20 1018.9 966.6
09 17.09 С 2
{3}
н/о н/о +20.5 +14.3 68 +24 +24 комфорт 1018.5 966.6
10 17.09 С 2
{4}
н/о н/о +21.1 +12.1 56 +23 +23 комфорт 1018.3 966.6
11 17.09 СЗ 2
{4}
н/о н/о +21.8 +12.1 54 +24 +24 комфорт 1017.9 966.3
12 17.09 С 2
{5}
н/о н/о +23.1 +12.5 51 +26 +26 жарко 1017.2 965.9
13 17.09 С 3
{5}
н/о н/о +23.6 +10.7 44 +25 +25 комфорт 1016.8 965.6
14 17.09 С 3
{6}
н/о н/о +23.4 +10.7 45 +26 +26 жарко 1016.6 965.4
15 17.09 С 3
{6}
н/о н/о +23.0 +10.8 46 +25 +25 комфорт 1016.6 965.3
16 17.09 С 2
{6}
н/о н/о +22.3 +12.1 52 +25 +25 комфорт 1016.7 965.3
17 17.09 СЗ 2
{4}
н/о н/о +20.6 +12.3 59 +24 +24 комфорт 1017.2 965.4
18 17.09 СЗ 2
{6}
н/о н/о +17.8 +13.6 76 +19 +19 1018.2 965.9 +23.6
19 17.09 С 2
{3}
н/о н/о +17.6 +13.3 76 +18 +18 1019.0 966.6
20 17.09 СЗ 1
{3}
н/о н/о +14.9 +13.1 89 +15 +15 1020.2 967.2
21 17.09 С 2
{4}
н/о н/о +16.5 +13.1 80 +17 +17 1020.3 967.6
22 17.09 С 3
{5}
н/о н/о +16.5 +11.5 72 +16 +16 1020.3 967.6
23 17.09 С 3
{6}
н/о н/о +16.5 +11.3 71 +16 +16 1020.2 967.5
00 18.09 СЗ 3
{7}
н/о н/о +15.9 +9.9 68 +15 +15 1020.3 967.5
01 18.09 СЗ 4
{8}
н/о н/о +15.4 +9.9 70 +14 +14 1020.5 967.6
02 18.09 СЗ 4
{8}
н/о н/о +14.8 +9.7 71 +14 +14 1020.6 967.6
03 18.09 СЗ 4
{8}
н/о н/о +14.2 +8.8 70 +13 +13 1020.8 967.7
04 18.09 СЗ 4
{9}
н/о н/о +13.8 +8.1 68 +13 +13 1021.1 967.9
05 18.09 С 3
{8}
н/о н/о +13.3 +7.2 67 +12 +12 1021.2 967.9
06 18.09 С 3
{9}
н/о н/о +13.0 +7.0 67 +12 +12 1021.6 968.2 +13.1
07 18.09 СЗ 4
{7}
н/о н/о +12.9 +7.2 68 +11 +11 1021.8 968.4
08 18.09 С 4
{7}
н/о н/о +12.7 +7.4 70 +11 +11 1022.3 968.8
09 18.09 С 3
{7}
н/о н/о +13.8 +8.1 68 +13 +13 1022.0 968.7
10 18.09 С 3
{6}
н/о н/о +15.1 +8.5 65 +15 +15 1021.7 968.7
11 18.09 С 5
{9}
н/о н/о +15.3 +8.5 64 +14 +14 1021.5 968.5
12 18.09 СВ 4
{9}
н/о н/о +15.9 +8.8 63 +15 +15 1021.3 968.5
13 18.09 С 3
{8}
н/о н/о +17.6 +9.4 59 +18 +18 1020.9 968.4
14 18.09 СВ 4
{8}
н/о н/о +17.8 +9.0 56 +18 +18 1020.8 968.3
15 18.09 СВ 4
{8}
н/о н/о +18.0 +8.8 55 +18 +18 1020.6 968.2
16 18.09 С 4
{6}
н/о н/о +17.3 +8.4 56 +17 +17 1020.8 968.2
17 18.09 СВ 2
{5}
н/о н/о +16.1 +8.7 61 +16 +16 1021.1 968.3
18 18.09 СВ 3
{8}
н/о н/о +14.6 +8.1 65 +14 +14 1021.9 968.8 +18.1
19 18.09 СВ 3
{5}
н/о н/о +13.5 +7.7 68 +13 +13 1022.8 969.4
20 18.09 СВ 3
{6}
н/о н/о +13.8 +6.1 60 +13 +13 1022.9 969.6
21 18.09 С 4
{6}
н/о н/о +12.7 +5.0 59 +11 +11 1023.5 969.9
22 18.09 С 3
{6}
н/о н/о +11.6 +4.7 63 +10 +10 1023.8 970.0
23 18.09 СЗ 3
{6}
н/о н/о +11.9 +4.5 60 +10 +10 1023.9 970.2

 

Местоположение метеостанции Мозен (Швейцария): широта 47.23 долгота 8.23 высота над уровнем моря 453 м.

В архиве по умолчанию представлена погода в Мозене за последнюю неделю. Архивные данные за месяц целиком и за предыдущие месяцы, начиная с января 2011 года, Вы можете получить, выбрав интересующий диапазон дат из раскрывающегося списка и нажав кнопку "Ввод!".


*Определитесь, кто Вы:
робот инопланетянин человек

Внимание! Время в таблицах - всемирное. Для получения местного времени необходимо прибавить поправку, которая равна 1 ч.

Смотрите также архив погоды в соседних городах и на ближайших метеорологических станциях:

Погода в Беромюнстере (Швейцария) (6 км)
Погода в Метлене (Швейцария) (14 км)
Погода в Эгольцвиле (Швейцария) (18 км)
Погода в Чаме (Швейцария) (19 км)
Погода в Букс-Зуре (Швейцария) (20 км)
Погода в Люцерне (Швейцария) (23 км)
Погода в Госгене (Швейцария) (24 км)
Погода в Бругг-Вилдегге (Швейцария) (27 км)
Погода в Шомоне (Швейцария) (28 км)
Погода на Пилатусе (Швейцария) (28 км)

Пояснения к столбцам:

Ветер - указаны скорость ветра в м/с - средняя за 10 мин, порывы в срок и между сроками (в фигурных скобках) и направление, откуда дует ветер: С - северный, СВ - северо-восточный, В - восточный, ЮВ - юго-восточный, Ю - южный, ЮЗ - юго-западный, З - западный, СЗ - северо-западный.
Видимость - горизонтальная дальность видимости в метрах или километрах. При видимости от 1 до 10 км при отсутствии осадков обычно наблюдается дымка, при ухудшении видимости до 1 км и менее - туман. В сухую погоду видимость может ухудшаться дымом, пылью или мглою.
Явления - указаны атмосферные явления, наблюдавшиеся в срок или в последний час перед сроком; фигурными скобками обозначены явления, наблюдавшиеся между сроками (за 1-3 часа до срока); квадратными скобками обозначены град или гололедные отложения с указанием их диаметра в мм.
Облачность - указаны через наклонную черту общая и нижняя облачность в баллах и высота нижней границы облаков в метрах; квадратными скобками обозначены формы облаков: Ci - перистые, Cs - перисто-слоистые, Cc - перисто-кучевые, Ac - высококучевые, As - высокослоистые, Sc - слоисто-кучевые, Ns - слоисто-дождевые, Cu - кучевые, Cb - кучево-дождевые. Подробнее классификацию облаков см. в Атласе облаков (PDF).
T - Температура воздуха - температура, измеренная на высоте 2 м над землей.
Td - Температура точки росы - температура, при понижении до которой содержащийся в воздухе водяной пар достигнет насыщения.
f - Относительная влажность воздуха - влажноcть воздуха, измеренная на высоте 2 м над землей.
Te - Эффективная температура - температура, которую ощущает одетый по сезону человек в тени. Характеристика душности погоды. При расчете учитывается влияние влажности воздуха и скорости ветра на теплоощущения человека.
Tes - Эффективная температура на солнце - температура, которую ощущает человек, с поправкой на солнечный нагрев. Характеристика знойности погоды. Зависит от высоты солнца над горизонтом, облачности и скорости ветра. Ночью, в пасмурную погоду, а также при ветре 12 м/с и более поправка равна нулю.
P - Атмосферное давление - приведенное к уровню моря атмосферное давление.
Po - Атмосферное давление - измеренное на уровне метеостанции атмосферное давление.
Tmin - Минимальная температура - минимум температуры воздуха на высоте 2 м над землей.
Tmax - Максимальная температура - максимум температуры воздуха на высоте 2 м над землей.
R - Количество осадков - Количество выпавших осадков за период времени, мм. При наведении курсора мыши на число - период времени, за который выпало указанное количество осадков.
R24 - Количество осадков - Количество выпавших осадков за 24 часа, мм.
S - Снежный покров - Высота снежного покрова, см. При наведении курсора мыши на число - состояние снежного покрова и степень покрытия местности в баллах.